Wind_Speed
21 20 20 20 20 21 22 21 22 21 20 19 20 20 21 21 22 22 23 23 24 24 25 26 27 29 29 29 29 31 32 33 35 35 37 38 37 36 35 34 33 33 35 35
20 21 20 20 20 21 20 20 21 21 19 20 21 21 21 22 23 23 23 24 25 25 25 26 26 28 30 30 30 30 31 32 33 34 35 36 36 35 35 35 34 33 34 34
21 21 21 20 21 22 21 20 21 21 21 22 22 22 23 24 24 24 24 24 25 25 25 26 27 28 29 30 30 30 31 32 33 33 33 33 34 35 34 34 34 34 34 34
21 21 22 22 22 22 22 21 22 22 22 23 23 23 23 24 24 24 25 24 24 25 25 26 26 27 28 29 30 30 30 30 31 31 32 32 33 34 34 33 33 34 34 34
22 23 23 22 22 23 22 21 22 23 23 23 24 24 23 24 25 26 26 25 25 25 25 25 25 26 28 29 29 29 29 29 30 31 31 32 33 33 33 33 33 33 34 33
23 23 24 23 24 24 24 22 22 22 23 24 24 24 24 25 25 25 25 25 25 26 26 25 25 25 27 28 29 29 29 29 30 31 31 31 31 30 31 30 31 32 32 33
23 24 24 25 25 25 25 24 23 23 24 24 25 25 25 25 25 25 25 25 25 26 26 27 27 26 27 28 28 28 28 28 28 28 28 28 29 29 29 29 30 31 31 32
24 25 25 25 25 25 25 24 24 25 25 25 26 25 25 25 25 24 24 24 24 25 25 26 26 26 26 26 26 26 26 27 27 27 28 28 28 29 29 29 29 30 30 30
24 24 25 25 25 26 26 25 25 25 26 26 26 25 25 25 24 24 23 23 24 24 24 24 25 25 24 25 25 25 25 26 26 27 27 28 28 29 29 29 29 29 30 31
23 23 24 24 25 26 26 25 25 26 26 25 25 24 24 24 23 23 23 23 23 23 23 23 24 24 24 24 25 25 25 25 25 26 26 26 27 28 29 29 29 29 30 29
23 23 24 24 25 25 25 25 25 25 24 24 24 23 22 22 22 22 21 21 21 21 21 22 22 22 23 23 24 24 24 23 23 24 25 25 26 26 28 28 28 28 28 29
23 24 25 25 25 24 24 24 23 23 22 22 22 21 21 20 20 20 19 20 20 19 19 19 20 20 20 20 21 23 23 23 23 23 24 24 24 25 25 26 27 27 28 28
24 25 26 25 24 23 23 23 22 21 20 20 19 19 19 19 19 18 18 18 18 17 17 17 18 18 19 19 19 21 22 23 23 23 23 23 23 24 25 25 26 26 26 26
24 25 24 24 24 23 23 22 21 20 19 19 18 18 18 18 18 18 17 17 16 17 17 17 17 17 17 18 18 19 21 21 21 22 23 23 23 24 24 24 25 25 25 25
23 23 23 23 23 23 22 21 20 20 19 18 18 17 17 17 17 17 17 16 16 16 17 17 17 17 18 18 19 19 19 20 21 21 22 22 23 23 23 23 23 24 24 24
22 23 22 22 22 21 21 20 20 19 19 18 17 17 17 17 17 17 17 16 16 16 16 16 16 17 18 19 19 19 19 20 20 20 21 22 23 23 23 23 23 22 22 22
22 22 22 22 22 21 21 20 19 19 19 18 18 17 17 17 17 17 17 16 16 16 16 16 16 16 17 18 18 18 19 19 19 19 20 21 22 22 21 20 20 19 20 20
22 22 22 22 22 22 21 19 18 18 18 18 18 17 18 18 17 17 17 16 16 16 16 15 15 16 16 16 16 17 17 17 18 18 18 18 18 18 17 18 18 18 18 18
23 22 22 22 21 20 20 19 19 18 18 18 18 18 18 17 17 17 17 16 16 16 16 16 16 15 15 15 15 16 16 17 17 17 17 17 16 16 16 16 16 17 17 17
23 22 22 21 21 20 20 19 19 19 19 18 18 18 17 17 17 17 17 17 17 17 16 16 15 15 14 15 15 16 17 17 17 16 16 16 16 16 16 16 16 17 17 17
22 21 21 21 21 21 20 20 19 19 19 18 18 18 17 17 17 17 17 17 17 17 16 16 15 15 15 15 16 16 17 17 16 17 17 16 16 16 16 16 17 17 17 17
21 21 21 21 21 20 19 19 19 18 18 18 18 18 17 17 17 17 17 17 16 15 15 15 15 15 16 16 16 16 16 17 17 16 17 16 16 16 16 16 16 16 16 16
22 22 21 21 21 20 19 19 18 18 18 18 18 17 17 18 18 18 17 16 15 15 15 15 15 15 16 16 15 15 15 16 16 16 16 16 16 16 16 16 16 15 15 16
21 21 22 22 21 19 19 19 19 19 18 18 18 18 18 18 18 17 16 16 15 15 15 15 15 15 15 15 15 14 14 15 15 15 16 16 16 15 15 15 15 15 15 15
20 21 21 21 20 19 19 19 19 19 19 18 18 18 18 17 16 16 16 15 15 15 15 14 14 14 14 14 14 14 14 14 14 14 14 15 15 15 14 14 14 14 14 14
20 21 21 20 19 18 18 18 18 18 18 18 18 18 17 17 16 16 15 15 14 14 14 13 13 13 13 13 13 13 13 14 14 13 13 14 14 13 13 13 13 13 13 13
21 21 20 19 18 18 18 18 18 17 17 17 17 17 16 16 16 15 15 14 14 13 12 12 11 11 11 11 12 12 12 12 12 12 12 12 12 12 11 11 11 11 11 11
Wind_Direction
312 311 312 312 311 309 304 299 294 291 287 285 283 281 278 275 273 269 269 268 266 267 264 263 262 260 260 259 257 254 252 251 249 250 250 250 251 251 253 254 256 259 261 264
309 309 310 311 310 309 306 301 298 293 287 286 284 284 283 280 278 274 273 268 267 268 266 264 263 261 260 259 257 255 251 249 248 249 251 251 251 251 253 255 256 259 262 266
306 307 309 311 311 308 304 304 301 295 290 287 286 283 281 280 279 278 277 273 269 268 268 268 265 263 260 258 256 254 252 251 249 248 251 251 251 252 253 256 258 260 262 265
304 307 308 314 313 309 304 303 301 295 289 288 287 287 282 280 280 278 278 275 269 266 265 266 266 264 260 259 256 254 252 250 250 250 250 252 252 254 255 256 258 261 261 264
302 305 309 313 313 311 308 305 302 299 292 289 287 286 283 281 279 278 278 276 272 269 266 265 265 264 261 258 255 253 251 250 249 251 253 255 255 256 256 256 258 261 261 263
303 305 309 312 312 310 308 305 304 301 296 290 289 286 285 282 279 277 276 276 274 271 269 267 266 265 262 258 255 252 250 248 250 252 254 255 253 253 254 256 258 261 262 265
304 304 307 311 310 309 306 305 303 299 298 294 290 289 287 283 280 277 275 275 273 271 269 267 265 266 263 258 254 250 248 246 247 248 250 251 250 252 255 257 259 262 263 265
304 304 306 308 308 307 305 303 301 299 297 295 291 289 287 284 282 279 277 277 274 271 269 268 266 265 263 258 253 248 247 247 247 248 250 251 251 253 256 259 261 262 262 263
305 307 308 307 306 305 303 300 299 298 296 294 292 291 288 285 283 280 278 277 274 272 270 269 267 264 261 259 255 251 250 251 251 252 251 251 252 254 256 258 261 261 263 264
306 308 308 307 306 304 301 298 297 297 297 295 293 290 287 285 283 279 276 275 275 273 271 270 268 264 262 260 256 253 253 253 252 252 251 253 254 255 256 258 261 262 264 265
304 307 308 308 307 305 302 298 297 298 298 297 295 292 290 287 283 280 278 275 275 274 271 270 270 266 263 260 257 254 253 252 252 252 252 252 254 256 258 260 262 263 264 267
302 305 307 309 309 307 303 300 298 298 298 297 298 295 293 290 287 283 280 278 275 275 273 271 270 267 264 262 257 253 251 253 254 255 254 254 256 259 262 265 265 265 267 270
299 301 304 307 308 307 305 302 301 301 302 301 299 296 294 292 291 287 283 280 276 275 274 272 270 267 264 262 259 256 255 254 253 253 254 256 259 262 263 264 265 267 269 273
297 300 303 306 308 306 304 302 301 302 303 304 304 300 297 294 292 289 287 285 281 277 276 273 269 267 265 263 261 259 256 254 253 254 255 258 261 264 264 264 266 269 271 272
296 300 303 306 306 305 303 301 301 301 302 303 305 304 300 295 293 290 288 287 285 282 280 275 270 267 267 265 263 261 258 256 254 256 257 259 262 264 265 266 269 270 270 271
295 298 302 305 306 305 303 301 300 300 301 302 303 304 303 300 298 292 289 287 285 283 283 279 272 267 266 265 264 262 259 258 257 258 260 261 262 264 266 268 270 271 270 270
294 296 299 302 304 304 302 300 298 297 298 301 302 302 300 298 297 294 291 288 285 281 282 282 276 273 271 268 264 262 259 258 258 260 261 260 261 262 264 267 269 271 269 267
293 295 298 300 302 302 301 298 298 297 297 297 298 299 298 296 295 292 291 287 284 281 281 281 280 278 276 271 266 261 257 255 257 260 261 259 260 262 264 267 269 270 268 266
293 295 297 299 299 298 297 296 296 296 297 298 299 299 298 295 293 291 290 288 285 283 282 282 281 278 275 271 266 261 259 258 258 261 261 261 262 265 267 268 270 269 267 265
292 294 296 298 299 296 294 293 293 294 295 297 299 298 297 295 294 293 290 287 284 284 282 281 278 276 273 269 265 264 262 260 259 261 262 263 264 267 268 269 270 268 266 265
290 292 294 297 298 297 294 292 291 292 294 296 297 295 294 294 294 294 293 290 287 285 282 279 275 271 269 268 268 266 264 262 263 264 264 264 265 267 268 269 269 268 265 262
289 291 294 296 297 296 294 293 291 291 293 294 294 293 292 292 294 295 295 292 290 286 283 279 275 270 268 269 268 267 266 264 265 265 264 263 264 265 267 267 268 267 262 258
291 292 293 295 295 294 293 292 292 293 294 294 293 291 290 291 294 295 294 290 287 285 282 279 275 270 269 269 267 265 265 265 264 265 265 264 263 263 264 266 266 263 258 255
293 294 294 293 293 291 290 290 292 294 295 294 292 289 289 290 293 294 292 288 286 285 283 280 276 272 269 267 265 264 265 265 264 266 266 264 261 261 262 263 262 257 253 252
294 295 295 293 291 289 288 288 291 293 294 293 292 289 289 290 291 291 290 288 286 284 282 279 274 269 266 265 263 262 262 262 264 266 266 262 259 258 258 258 256 253 251 248
294 296 295 293 291 290 289 289 290 291 293 293 293 291 288 288 289 288 289 287 285 281 278 275 270 264 264 264 262 260 260 263 266 266 263 257 253 252 254 254 253 251 248 243
293 294 294 293 290 290 290 289 288 290 292 293 294 292 290 288 287 286 286 285 283 278 275 272 268 266 266 264 262 259 260 263 264 262 259 253 249 249 250 250 250 247 242 238
Height
5624 5621 5618 5616 5614 5611 5607 5604 5602 5601 5599 5598 5596 5595 5594 5592 5591 5590 5589 5589 5588 5588 5588 5588 5588 5588 5589 5590 5591 5593 5594 5596 5598 5600 5602 5604 5607 5609 5611 5614 5616 5618 5620 5622
5619 5616 5613 5611 5608 5605 5602 5599 5596 5594 5593 5592 5590 5589 5588 5586 5585 5584 5583 5582 5581 5581 5580 5580 5580 5581 5581 5582 5583 5584 5586 5588 5590 5592 5594 5596 5598 5600 5603 5605 5607 5609 5611 5613
5614 5611 5608 5607 5604 5600 5597 5594 5591 5589 5588 5586 5585 5583 5582 5580 5579 5577 5576 5575 5574 5573 5573 5573 5573 5573 5573 5574 5575 5576 5577 5579 5581 5583 5585 5588 5590 5592 5594 5596 5599 5601 5602 5604
5607 5606 5603 5604 5598 5594 5591 5589 5586 5583 5581 5580 5578 5577 5575 5573 5572 5570 5569 5568 5567 5566 5565 5565 5565 5565 5565 5565 5566 5568 5569 5571 5573 5575 5577 5579 5581 5583 5586 5588 5590 5592 5593 5595
5601 5598 5597 5597 5592 5588 5585 5584 5580 5577 5575 5573 5571 5570 5569 5567 5565 5563 5562 5560 5559 5558 5558 5557 5557 5557 5557 5557 5558 5559 5561 5563 5565 5567 5569 5571 5573 5575 5577 5580 5582 5583 5584 5585
5595 5592 5591 5591 5586 5581 5580 5578 5575 5571 5569 5567 5565 5564 5564 5560 5558 5556 5555 5553 5552 5551 5550 5550 5550 5549 5549 5550 5550 5552 5553 5555 5557 5559 5561 5563 5566 5568 5569 5571 5573 5574 5575 5576
5589 5585 5584 5583 5579 5575 5574 5572 5568 5565 5562 5560 5558 5557 5555 5553 5551 5549 5548 5546 5545 5544 5543 5542 5542 5542 5542 5542 5543 5544 5546 5548 5549 5551 5554 5556 5558 5560 5562 5563 5565 5565 5566 5567
5582 5580 5580 5576 5572 5569 5567 5563 5560 5558 5556 5554 5552 5550 5547 5545 5544 5542 5541 5539 5538 5536 5536 5535 5535 5535 5535 5536 5536 5538 5539 5541 5542 5544 5546 5548 5550 5552 5554 5555 5556 5557 5557 5558
5578 5577 5573 5569 5565 5562 5559 5557 5554 5551 5549 5547 5545 5542 5540 5539 5537 5536 5534 5533 5531 5530 5529 5528 5528 5528 5529 5529 5530 5531 5532 5534 5535 5537 5539 5541 5542 5544 5546 5547 5548 5549 5549 5550
5571 5570 5566 5562 5558 5555 5552 5549 5547 5545 5542 5540 5538 5535 5533 5532 5530 5529 5527 5526 5525 5524 5523 5522 5522 5522 5522 5522 5523 5524 5526 5527 5529 5530 5531 5533 5534 5536 5538 5539 5540 5541 5541 5541
5565 5563 5559 5556 5552 5549 5546 5543 5540 5538 5536 5533 5531 5529 5527 5525 5524 5522 5521 5520 5519 5518 5517 5517 5516 5515 5516 5516 5517 5518 5519 5521 5522 5523 5524 5526 5527 5529 5530 5531 5532 5533 5533 5533
5559 5556 5553 5550 5546 5542 5539 5536 5534 5532 5530 5527 5525 5523 5521 5519 5518 5516 5515 5514 5513 5512 5511 5510 5510 5509 5509 5510 5511 5512 5513 5515 5515 5516 5518 5519 5521 5522 5523 5524 5524 5524 5524 5524
5552 5549 5546 5543 5540 5536 5533 5530 5528 5526 5524 5521 5519 5517 5515 5514 5512 5511 5509 5508 5507 5507 5505 5505 5504 5504 5504 5504 5505 5506 5507 5508 5509 5510 5511 5512 5513 5514 5515 5516 5516 5516 5516 5515
5544 5541 5539 5536 5533 5530 5527 5525 5522 5520 5518 5516 5514 5512 5510 5509 5507 5506 5504 5503 5502 5501 5500 5499 5499 5498 5498 5499 5499 5499 5500 5501 5502 5504 5505 5506 5507 5507 5508 5509 5509 5508 5508 5507
5537 5534 5532 5530 5527 5524 5522 5519 5517 5515 5513 5511 5509 5507 5505 5503 5502 5501 5499 5498 5496 5496 5495 5494 5494 5493 5493 5493 5493 5493 5494 5495 5496 5497 5498 5499 5500 5500 5501 5501 5501 5501 5500 5499
5530 5528 5525 5523 5521 5518 5516 5514 5512 5510 5508 5506 5504 5502 5500 5498 5497 5495 5494 5493 5491 5490 5489 5488 5488 5488 5487 5487 5487 5488 5488 5489 5490 5491 5491 5492 5493 5493 5494 5494 5493 5493 5493 5493
5523 5521 5519 5517 5514 5512 5510 5508 5506 5504 5503 5501 5499 5497 5495 5493 5491 5490 5489 5487 5486 5485 5484 5483 5482 5482 5481 5481 5481 5481 5482 5483 5483 5484 5485 5485 5486 5486 5487 5487 5487 5486 5486 5486
5516 5514 5512 5510 5508 5506 5504 5502 5501 5499 5497 5495 5493 5491 5489 5488 5486 5485 5484 5482 5481 5480 5479 5478 5477 5476 5476 5475 5475 5476 5476 5477 5478 5478 5479 5479 5479 5480 5480 5480 5480 5480 5480 5480
5509 5507 5505 5503 5501 5499 5498 5496 5495 5493 5491 5490 5488 5486 5484 5482 5481 5479 5478 5477 5476 5475 5474 5473 5472 5471 5470 5470 5470 5470 5471 5472 5472 5473 5473 5473 5474 5474 5474 5474 5474 5474 5474 5475
5501 5500 5498 5497 5495 5493 5492 5490 5489 5487 5485 5484 5482 5480 5478 5477 5475 5474 5472 5471 5470 5469 5468 5467 5467 5466 5465 5465 5465 5466 5466 5466 5467 5467 5467 5468 5468 5468 5468 5468 5468 5468 5469 5469
5494 5493 5492 5490 5488 5487 5485 5484 5482 5481 5479 5478 5476 5475 5473 5471 5470 5468 5467 5466 5465 5463 5463 5462 5461 5461 5460 5460 5460 5460 5460 5461 5461 5461 5461 5462 5462 5462 5462 5462 5463 5463 5463 5463
5487 5486 5485 5483 5482 5480 5478 5477 5476 5475 5473 5472 5470 5469 5467 5466 5465 5463 5461 5460 5459 5458 5457 5456 5456 5455 5455 5455 5455 5455 5455 5455 5455 5455 5456 5456 5456 5457 5457 5457 5457 5457 5458 5458
5480 5479 5478 5476 5475 5473 5472 5471 5470 5469 5467 5466 5465 5463 5462 5461 5459 5458 5456 5455 5453 5453 5452 5451 5450 5450 5450 5450 5449 5450 5450 5450 5450 5450 5450 5451 5451 5451 5452 5452 5452 5452 5453 5453
5474 5472 5471 5470 5468 5467 5466 5465 5464 5463 5461 5460 5459 5458 5456 5455 5454 5452 5451 5450 5449 5448 5447 5446 5445 5444 5444 5444 5444 5444 5444 5445 5445 5445 5445 5445 5446 5446 5447 5447 5447 5447 5448 5448
5468 5466 5465 5463 5462 5460 5459 5458 5458 5456 5455 5454 5453 5452 5451 5449 5448 5447 5445 5444 5443 5442 5441 5441 5440 5440 5439 5439 5439 5439 5439 5440 5440 5440 5440 5440 5441 5441 5442 5442 5442 5443 5443 5443
5462 5460 5458 5457 5456 5454 5453 5453 5452 5451 5449 5448 5447 5446 5445 5444 5443 5442 5440 5439 5438 5437 5436 5436 5435 5435 5435 5435 5435 5435 5435 5435 5435 5435 5435 5435 5436 5436 5437 5437 5438 5438 5439 5439
5455 5454 5452 5451 5450 5449 5448 5447 5446 5445 5444 5443 5442 5441 5440 5438 5437 5436 5435 5434 5433 5433 5432 5432 5431 5431 5431 5430 5430 5431 5431 5431 5431 5431 5431 5431 5432 5432 5433 5433 5434 5434 5435 5436